Tracking 31027 objects as of 19-Jul-2025
HD Live streaming from Space Station
objects crossing your sky now

ARIANE 44L R/B

Track ARIANE 44L R/B now!


NORAD ID: 24654
Int'l Code: 1996-063C
Perigee: 389.2 km
Apogee: 33,539.3 km
Inclination: 3.8 °
Period: 591.3 minutes
Semi major axis: 23335 km
RCS: 21.8901 m2 (large)
Launch date: November 13, 1996
Source: France (FR)
Launch site: FRENCH GUIANA (FRGUI)

Note: This is a ROCKET BODY
Your satellite tracking list
SL-8 DEB
Track 1 satellite(s)




NASA's NSSDC Master Catalog

Two Line Element Set (TLE):
1 24654U 96063C   25199.04867199  .00000208  00000-0  30612-3 0  9990
2 24654   3.8374 130.1870 7103007 257.4654  21.1297  2.43547339244832
Source of the keplerian elements: AFSPC